Change the Weather History Date:

Sunday, May 4, 2014

  Actual Average Record
Temperature  
Mean Temperature 72 °F -  
Max Temperature 99 °F 76 °F 99 °F (2012)
Min Temperature 46 °F 53 °F 33 °F (2013)
Cooling Degree Days 7    
Growing Degree Days 22 (Base 50)    
Moisture  
Dew Point 33 °F    
Average Humidity 28    
Maximum Humidity 77    
Minimum Humidity 7    
Precipitation  
Precipitation 0.00 in - - ()
Sea Level Pressure  
Sea Level Pressure 29.84 in    
Wind  
Wind Speed 8 mph (South)    
Max Wind Speed 20 mph    
Max Gust Speed 31 mph    
Visibility 10 miles    
Events      
Averages and records for this station are not official NWS values.
T = Trace of Precipitation, MM = Missing Value Source: NWS Daily Summary

Daily Weather History Graph

Daily Weather History Graph

Search for Another Location

Airport or City:

Trip Planner

Search our weather history database for the weather conditions in past years. The results will help you decide how hot, cold, wet, or windy it might be!

Date:

Astronomy

May. 04, 2014 Rise Set
Actual Time 6:40 AM CDT 8:20 PM CDT
Civil Twilight 6:13 AM CDT 8:47 PM CDT
Nautical Twilight 5:40 AM CDT 9:20 PM CDT
Astronomical Twilight 5:06 AM CDT 9:55 PM CDT
Moon 11:06 AM CDT (5/4) 12:25 AM CDT (5/4)
Length of Visible Light 14h 34m
Length of Day
13h 40m
Waxing Crescent, 28% of the Moon is Illuminated
May 4
Waxing Crescent
May 6
First Quarter
May 14
Full
May 21
Last Quarter
May 28
New

Hourly Weather History & Observations

Time (CDT) Temp. Dew Point Humidity Pressure Visibility Wind Dir Wind Speed Gust Speed Precip Events Conditions
12:53 AM 66.9 °F 36.0 °F 32% 29.90 in 10.0 mi SSE 8.1 mph - N/A   Clear
1:53 AM 64.0 °F 37.0 °F 37% 29.89 in 10.0 mi South 6.9 mph - N/A   Clear
2:53 AM 59.0 °F 39.0 °F 48% 29.88 in 10.0 mi South 3.5 mph - N/A   Clear
3:53 AM 52.0 °F 39.9 °F 63% 29.87 in 10.0 mi Calm Calm - N/A   Clear
4:53 AM 53.1 °F 37.9 °F 57% 29.88 in 10.0 mi Calm Calm - N/A   Clear
5:53 AM 46.9 °F 39.9 °F 77% 29.89 in 10.0 mi Calm Calm - N/A   Clear
6:53 AM 46.0 °F 39.0 °F 76% 29.90 in 10.0 mi Calm Calm - N/A   Clear
7:53 AM 55.9 °F 41.0 °F 57% 29.92 in 10.0 mi Calm Calm - N/A   Clear
8:53 AM 68.0 °F 37.0 °F 32% 29.92 in 10.0 mi SSW 5.8 mph - N/A   Clear
9:53 AM 77.0 °F 32.0 °F 19% 29.91 in 10.0 mi SSW 12.7 mph 18.4 mph N/A   Clear
10:53 AM 84.0 °F 28.9 °F 14% 29.90 in 10.0 mi SW 13.8 mph 25.3 mph N/A   Clear
11:53 AM 91.0 °F 28.9 °F 11% 29.88 in 10.0 mi SW 13.8 mph 24.2 mph N/A   Clear
12:53 PM 93.0 °F 30.0 °F 11% 29.86 in 10.0 mi SSW 12.7 mph 28.8 mph N/A   Clear
1:53 PM 96.1 °F 28.0 °F 9% 29.83 in 10.0 mi SSW 17.3 mph 28.8 mph N/A   Clear
2:53 PM 97.0 °F 27.0 °F 8% 29.82 in 10.0 mi SSW 17.3 mph 27.6 mph N/A   Clear
3:53 PM 98.1 °F 24.1 °F 7% 29.80 in 10.0 mi SSW 13.8 mph 31.1 mph N/A   Clear
4:53 PM 98.1 °F 25.0 °F 7% 29.77 in 10.0 mi SSW 19.6 mph 27.6 mph N/A   Clear
5:53 PM 97.0 °F 27.0 °F 8% 29.77 in 10.0 mi South 16.1 mph 28.8 mph N/A   Clear
6:53 PM 95.0 °F 28.0 °F 9% 29.76 in 10.0 mi South 17.3 mph 24.2 mph N/A   Clear
7:53 PM 89.1 °F 30.9 °F 12% 29.75 in 10.0 mi South 12.7 mph - N/A   Clear
8:53 PM 81.0 °F 32.0 °F 17% 29.76 in 10.0 mi SSE 11.5 mph - N/A   Clear
9:53 PM 77.0 °F 33.1 °F 20% 29.77 in 10.0 mi South 11.5 mph - N/A   Clear
10:53 PM 75.0 °F 32.0 °F 21% 29.78 in 10.0 mi SSE 13.8 mph - N/A   Clear
11:53 PM 73.9 °F 32.0 °F 21% 29.78 in 10.0 mi SSE 15.0 mph - N/A   Clear